Qianfan Jigui 06-15

operational
NORAD ID: 62799 Int'l Des: 2025-016 Owner: YUANX Country: CN Constellation: qianfan
LEOCIRCULARPOLAR

Über Qianfan Jigui 06-15

Beschreibung wird geladen...

Live-Position

3D-Globus wird geladen...

Nächste Überflüge

Höhenverlauf

Altitude vs Time

uPlot chart will show altitude changes over time

Zweizeiliger Elementsatz

1 62799U 25016Q 25277.81756839 .00000098 00000-0 13355-3 0 9994
2 62799 88.9722 110.1082 0015655 178.0251 182.0964 13.50967491 37971
Epoch: 4. Okt. 2025 • Age: 11 hours

Aktueller Status

Höhe 1084.2 km
Geschwindigkeit 7.31 km/s
Subsatellitenpunkt 58.83°N, 1.1°W
Startdatum 23. Jan. 2025
Alter 0.6 years
Typ internet

Technische Details

Klassifizierung Payload
Masse 267.00 kg
Trockenmasse 267.00 kg
Gesamtmasse 267.00 kg
Länge 0.30 m
Durchmesser 3.00 m
Spannweite 10.00 m
Form Box+pan
Hersteller SECM
Bus-Typ Qianfan
Phasenstatus In Orbit
Besitzer/Staat YUANX/CN

Große Konstellationen

Loading constellations...